Weather History for Altus AFB, OK

Change the Weather History Date:

Thursday, April 18, 2013

  Actual Average Record
Temperature  
Mean Temperature 44 °F -  
Max Temperature 53 °F 73 °F 98 °F (2011)
Min Temperature 37 °F 48 °F 28 °F (1999)
Degree Days  
Heating Degree Days 20    
Moisture  
Dew Point 34 °F    
Average Humidity 72    
Maximum Humidity 100    
Minimum Humidity 36    
Precipitation  
Precipitation 0.10 in - - ()
Sea Level Pressure  
Sea Level Pressure 29.94 in    
Wind  
Wind Speed 26 mph (NNW)    
Max Wind Speed 39 mph    
Max Gust Speed 47 mph    
Visibility 10 miles    
Events Rain    
Averages and records for this station are not official NWS values.
T = Trace of Precipitation, MM = Missing Value Source: NWS Daily Summary

Daily Weather History Graph

Daily Weather History Graph

Search for Another Location

Airport:

Trip Planner

Search our weather history database for the weather conditions in past years. The results will help you decide how hot, cold, wet, or windy it might be!

Date:

Astronomy

Apr. 18, 2013 Rise Set
Actual Time 7:01 AM CDT 8:11 PM CDT
Civil Twilight 6:35 AM CDT 8:38 PM CDT
Nautical Twilight 6:04 AM CDT 9:09 PM CDT
Astronomical Twilight 5:31 AM CDT 9:41 PM CDT
Moon 1:17 PM CDT (4/18) 2:24 AM CDT (4/18)
Length of Visible Light 14h 02m
Length of Day
13h 10m
First Quarter, 52% of the Moon is Illuminated
Apr 18
First Quarter
Apr 25
Full
May 2
Last Quarter
May 9
New
May 17
First Quarter

Hourly Weather History & Observations

Time (CDT) Temp. Windchill Dew Point Humidity Pressure Visibility Wind Dir Wind Speed Gust Speed Precip Events Conditions
12:31 AM 44.6 °F 35.5 °F 42.8 °F 93% 29.75 in 10.0 mi NNW 25.3 mph 33.4 mph N/A Rain Light Rain
12:58 AM 43.3 °F 33.0 °F 43.2 °F 99% 29.75 in 5.0 mi NNW 29.9 mph 38.0 mph 0.01 in   Light Drizzle
1:34 AM 41.0 °F 30.2 °F 41.0 °F 100% 29.80 in 7.0 mi NNW 27.6 mph 41.4 mph N/A   Overcast
1:44 AM 41.0 °F 29.7 °F 41.0 °F 100% 29.79 in 10.0 mi NNW 31.1 mph 38.0 mph N/A Rain Light Rain
1:58 AM 41.5 °F 31.2 °F 40.6 °F 97% 29.79 in 10.0 mi NNW 26.5 mph 40.3 mph 0.04 in Rain Light Rain
2:03 AM 41.0 °F 30.0 °F 41.0 °F 100% 29.80 in 10.0 mi North 28.8 mph 39.1 mph N/A Rain Light Rain
2:08 AM 41.0 °F 30.5 °F 41.0 °F 100% 29.80 in 10.0 mi NNW 26.5 mph 35.7 mph N/A Rain Light Rain
2:13 AM 41.0 °F 29.8 °F 39.2 °F 93% 29.79 in 10.0 mi NNW 29.9 mph 39.1 mph N/A Rain Light Rain
2:18 AM 41.0 °F 30.0 °F 39.2 °F 93% 29.79 in 10.0 mi NNW 28.8 mph 39.1 mph N/A Rain Light Rain
2:19 AM 41.0 °F 30.0 °F 39.2 °F 93% 29.80 in 10.0 mi NNW 28.8 mph 39.1 mph N/A   Overcast
2:58 AM 42.3 °F 32.2 °F 38.7 °F 87% 29.80 in 10.0 mi North 26.5 mph 32.2 mph 0.01 in   Overcast
3:18 AM 42.8 °F 33.1 °F 37.4 °F 81% 29.80 in 10.0 mi NNW 25.3 mph 33.4 mph N/A   Scattered Clouds
3:23 AM 42.8 °F 32.9 °F 37.4 °F 81% 29.80 in 10.0 mi NNW 26.5 mph 34.5 mph N/A   Mostly Cloudy
3:38 AM 42.8 °F 33.1 °F 37.4 °F 81% 29.78 in 10.0 mi NNW 25.3 mph 38.0 mph N/A   Mostly Cloudy
3:42 AM 41.0 °F 28.8 °F 37.4 °F 87% 29.78 in 10.0 mi NNW 36.8 mph 44.9 mph N/A   Mostly Cloudy
3:47 AM 41.0 °F 28.5 °F 37.4 °F 87% 29.78 in 10.0 mi NNW 39.1 mph 47.2 mph N/A   Scattered Clouds
3:58 AM 41.0 °F 30.0 °F 35.8 °F 82% 29.79 in 10.0 mi NNW 28.8 mph 47.2 mph 0.04 in   Partly Cloudy
4:01 AM 41.0 °F 30.9 °F 35.6 °F 81% 29.81 in 10.0 mi NNW 24.2 mph 35.7 mph N/A   Scattered Clouds
4:11 AM 41.0 °F 30.5 °F 37.4 °F 87% 29.82 in 10.0 mi NNW 26.5 mph 36.8 mph N/A   Mostly Cloudy
4:31 AM 41.0 °F 29.8 °F 35.6 °F 81% 29.84 in 10.0 mi NNW 29.9 mph 40.3 mph N/A   Overcast
4:58 AM 39.7 °F 28.8 °F 33.4 °F 78% 29.87 in 10.0 mi NNW 26.5 mph 41.4 mph 0.00 in   Overcast
5:58 AM 38.3 °F 27.3 °F 31.6 °F 77% 29.92 in 10.0 mi NNW 24.2 mph 31.1 mph N/A   Mostly Cloudy
6:13 AM 37.4 °F 26.9 °F 32.0 °F 81% 29.93 in 10.0 mi NNW 20.7 mph 29.9 mph N/A   Mostly Cloudy
6:48 AM 39.2 °F 28.0 °F 32.0 °F 75% 29.96 in 10.0 mi NW 26.5 mph 31.1 mph N/A   Overcast
6:58 AM 38.3 °F 26.8 °F 30.4 °F 73% 29.97 in 10.0 mi NNW 26.5 mph 33.4 mph N/A   Overcast
7:23 AM 37.4 °F 26.9 °F 30.2 °F 75% 29.98 in 10.0 mi NNW 20.7 mph - N/A   Overcast
7:58 AM 38.1 °F 27.9 °F 30.0 °F 73% 30.01 in 10.0 mi NNW 20.7 mph 28.8 mph N/A   Overcast
8:58 AM 38.3 °F 27.1 °F 29.1 °F 70% 30.03 in 10.0 mi North 25.3 mph 36.8 mph N/A   Overcast
9:58 AM 39.7 °F 29.0 °F 29.5 °F 67% 30.05 in 10.0 mi NNW 25.3 mph 28.8 mph N/A   Overcast
10:48 AM 41.0 °F 31.6 °F 30.2 °F 65% 30.04 in 10.0 mi NNW 20.7 mph - N/A   Scattered Clouds
10:58 AM 42.3 °F 32.8 °F 30.4 °F 63% 30.05 in 10.0 mi NNW 23.0 mph 29.9 mph N/A   Scattered Clouds
11:38 AM 44.6 °F 36.4 °F 32.0 °F 61% 30.04 in 10.0 mi NNW 20.7 mph 27.6 mph N/A   Mostly Cloudy
11:58 AM 46.8 °F - 31.8 °F 56% 30.05 in 10.0 mi NNW 20.7 mph 29.9 mph N/A   Mostly Cloudy
12:53 PM 48.2 °F - 32.0 °F 54% 30.03 in 10.0 mi North 25.3 mph 29.9 mph N/A   Scattered Clouds
12:58 PM 48.2 °F - 31.3 °F 52% 30.04 in 10.0 mi North 24.2 mph 34.5 mph N/A   Scattered Clouds
1:58 PM 50.2 °F - 30.2 °F 46% 30.05 in 10.0 mi NNW 17.3 mph 31.1 mph N/A   Scattered Clouds
2:58 PM 52.2 °F - 30.6 °F 44% 30.04 in 10.0 mi North 23.0 mph 29.9 mph N/A   Scattered Clouds
3:58 PM 52.3 °F - 28.8 °F 40% 30.05 in 10.0 mi NW 23.0 mph 28.8 mph N/A   Partly Cloudy
4:58 PM 52.3 °F - 27.1 °F 38% 30.05 in 10.0 mi NW 21.9 mph 33.4 mph N/A   Clear
5:58 PM 52.5 °F - 26.4 °F 36% 30.07 in 10.0 mi NNW 20.7 mph 28.8 mph N/A   Partly Cloudy
6:58 PM 51.1 °F - 25.2 °F 36% 30.09 in 10.0 mi NNW 21.9 mph 25.3 mph N/A   Clear
7:58 PM 48.6 °F - 24.3 °F 39% 30.13 in 10.0 mi NNW 12.7 mph - N/A   Clear
8:58 PM 43.7 °F 38.1 °F 26.2 °F 50% 30.16 in 10.0 mi NNW 10.4 mph - N/A   Clear
9:58 PM 41.4 °F 36.8 °F 26.8 °F 56% 30.19 in 10.0 mi NW 6.9 mph - N/A   Clear
10:58 PM 39.0 °F 33.4 °F 27.3 °F 63% 30.21 in 10.0 mi NNW 8.1 mph - N/A   Clear
11:58 PM 39.4 °F 34.5 °F 25.9 °F 58% 30.21 in 10.0 mi NW 6.9 mph - N/A   Clear